CPA169 KLAX-ZSPD

Flight info

Callsign CPA169
Flight time N/A
Altitude 34000
Route VTU8 RZS DCT MCKEY DCT LIBBO DCT BRINY DCT BOARS DCT AMAKR DCT REDWD DCT TRYSH DCT GAPNE DCT 44N140W/N0490F360 47N150W 50N160W 51N170W 51N180E/N0486F380 50N170E DCT CUTEE DCT KALIG DCT KALNA/N0483F400 OTR5 ADNAP Y807 LALID Y804 INUBO Y60 ISAKY Y592 ONIKU A593 LAMEN/K0906F400 A593 AKARA/K0904S1220 A593 DUMET DUM82A
Aircraft A359/H-SDE2E3GHIJ3J4J5LM1ORWXY/LB1D1

Departure

Time 2026-05-04 02:26
Airport Los Angeles International Airport (KLAX)

Arrival

Time N/A
Airport Shanghai Pudong International Airport (ZSPD)
Time Latitude Longitude Altitude Speed Heading
2026-05-04 02:02 33.94760 -118.40206 101 ft 0 kts 109°
2026-05-04 02:14 33.94760 -118.40208 104 ft 1 kts 109°
2026-05-04 02:14 33.94766 -118.40226 101 ft 3 kts 109°
2026-05-04 02:14 33.94772 -118.40249 102 ft 3 kts 109°
2026-05-04 02:14 33.94779 -118.40272 102 ft 3 kts 109°
2026-05-04 02:15 33.94786 -118.40295 102 ft 3 kts 109°
2026-05-04 02:15 33.94793 -118.40318 99 ft 3 kts 109°
2026-05-04 02:15 33.94799 -118.40341 103 ft 3 kts 109°
2026-05-04 02:15 33.94806 -118.40363 102 ft 2 kts 109°
2026-05-04 02:16 33.94806 -118.40364 100 ft 2 kts 109°
2026-05-04 02:16 33.94808 -118.40367 100 ft 2 kts 92°
2026-05-04 02:16 33.94808 -118.40364 102 ft 0 kts 89°
2026-05-04 02:18 33.94808 -118.40363 102 ft 1 kts 89°
2026-05-04 02:19 33.94810 -118.40332 102 ft 1 kts 82°
2026-05-04 02:19 33.94825 -118.40293 105 ft 7 kts 42°
2026-05-04 02:19 33.94862 -118.40285 104 ft 7 kts 14°
2026-05-04 02:19 33.94897 -118.40239 106 ft 9 kts 68°
2026-05-04 02:20 33.94909 -118.40150 106 ft 12 kts 82°
2026-05-04 02:20 33.94918 -118.40066 106 ft 10 kts 82°
2026-05-04 02:20 33.94924 -118.40004 105 ft 5 kts 84°
2026-05-04 02:20 33.94928 -118.39979 106 ft 1 kts 85°
2026-05-04 02:21 33.94928 -118.39975 106 ft 1 kts 84°
2026-05-04 02:21 33.94934 -118.39946 106 ft 5 kts 71°
2026-05-04 02:21 33.94936 -118.39941 106 ft 0 kts 66°
2026-05-04 02:22 33.94938 -118.39938 106 ft 1 kts 63°
2026-05-04 02:22 33.94947 -118.39925 107 ft 1 kts 39°
2026-05-04 02:23 33.94949 -118.39925 107 ft 0 kts 33°
2026-05-04 02:23 33.94950 -118.39925 107 ft 0 kts 26°
2026-05-04 02:24 33.94952 -118.39923 107 ft 2 kts 25°
2026-05-04 02:25 33.94994 -118.39914 111 ft 10 kts 360°
2026-05-04 02:25 33.95042 -118.39945 113 ft 6 kts 292°
2026-05-04 02:25 33.95039 -118.39979 111 ft 6 kts 263°
2026-05-04 02:25 33.95013 -118.40229 113 ft 61 kts 263°
2026-05-04 02:26 33.94935 -118.40985 114 ft 119 kts 263°
2026-05-04 02:26 33.94814 -118.42181 154 ft 164 kts 263°
2026-05-04 02:26 33.94696 -118.43474 931 ft 148 kts 263°
2026-05-04 02:26 33.94587 -118.44662 1714 ft 139 kts 263°
2026-05-04 02:27 33.94705 -118.45848 1871 ft 150 kts 294°
2026-05-04 02:27 33.95208 -118.47007 2054 ft 162 kts 295°
2026-05-04 02:27 33.95616 -118.48324 2200 ft 176 kts 274°
2026-05-04 02:27 33.95602 -118.49818 2416 ft 188 kts 264°
2026-05-04 02:28 33.95448 -118.51463 2560 ft 208 kts 263°
2026-05-04 02:28 33.95252 -118.53252 2808 ft 224 kts 263°
2026-05-04 02:28 33.95034 -118.55177 3078 ft 239 kts 262°
2026-05-04 02:28 33.94806 -118.57191 3523 ft 246 kts 263°
2026-05-04 02:29 33.94572 -118.59248 4026 ft 250 kts 262°
2026-05-04 02:29 33.94336 -118.61343 4512 ft 255 kts 262°
2026-05-04 02:29 33.94097 -118.63478 5033 ft 259 kts 262°
2026-05-04 02:29 33.93857 -118.65629 5671 ft 258 kts 262°
2026-05-04 02:30 33.93617 -118.67771 6294 ft 260 kts 262°
2026-05-04 02:30 33.93369 -118.69939 6845 ft 263 kts 262°
2026-05-04 02:30 33.93130 -118.72135 7407 ft 266 kts 262°
2026-05-04 02:30 33.92902 -118.74343 8039 ft 267 kts 262°
2026-05-04 02:31 33.92686 -118.76579 8606 ft 270 kts 262°
2026-05-04 02:31 33.92480 -118.78835 9228 ft 272 kts 262°
2026-05-04 02:31 33.92284 -118.81110 9840 ft 275 kts 262°
2026-05-04 02:31 33.92097 -118.83413 10307 ft 282 kts 262°
2026-05-04 02:32 33.91906 -118.85822 10571 ft 296 kts 262°
2026-05-04 02:32 33.91706 -118.88342 10835 ft 310 kts 262°
2026-05-04 02:32 33.91496 -118.90989 11098 ft 324 kts 262°
2026-05-04 02:32 33.91277 -118.93741 11362 ft 336 kts 262°
2026-05-04 02:33 33.91051 -118.96595 11618 ft 349 kts 262°
2026-05-04 02:33 33.90816 -118.99547 11860 ft 360 kts 262°
2026-05-04 02:33 33.90578 -119.02555 12104 ft 371 kts 262°
2026-05-04 02:33 33.90332 -119.05675 12478 ft 377 kts 262°
2026-05-04 02:34 33.90088 -119.08833 12933 ft 381 kts 262°
2026-05-04 02:34 33.89845 -119.12021 13397 ft 384 kts 262°
2026-05-04 02:34 33.89606 -119.15233 13868 ft 387 kts 263°
2026-05-04 02:34 33.89363 -119.18505 14346 ft 388 kts 262°
2026-05-04 02:35 33.89126 -119.21689 14881 ft 386 kts 262°
2026-05-04 02:35 33.88883 -119.24944 15428 ft 385 kts 263°
2026-05-04 02:35 33.88643 -119.28113 15937 ft 385 kts 263°
2026-05-04 02:35 33.88399 -119.31318 16493 ft 385 kts 263°
2026-05-04 02:36 33.88153 -119.34522 17027 ft 384 kts 263°
2026-05-04 02:36 33.87905 -119.37723 17571 ft 384 kts 263°
2026-05-04 02:36 33.87655 -119.40927 18084 ft 385 kts 263°
2026-05-04 02:36 33.87403 -119.44127 18550 ft 386 kts 263°
2026-05-04 02:37 33.87334 -119.47367 18970 ft 389 kts 270°
2026-05-04 02:37 33.87753 -119.50596 19374 ft 395 kts 281°
2026-05-04 02:37 33.88817 -119.53679 19771 ft 405 kts 295°
2026-05-04 02:37 33.90565 -119.56389 20170 ft 417 kts 307°
2026-05-04 02:38 33.92716 -119.58796 20556 ft 425 kts 313°
2026-05-04 02:38 33.95032 -119.61027 20929 ft 429 kts 315°
2026-05-04 02:38 33.97421 -119.63181 21320 ft 432 kts 316°
2026-05-04 02:38 33.99843 -119.65335 21697 ft 434 kts 315°
2026-05-04 02:39 34.02268 -119.67517 22063 ft 436 kts 315°
2026-05-04 02:39 34.04684 -119.69730 22435 ft 437 kts 314°
2026-05-04 02:39 34.07093 -119.71968 22819 ft 438 kts 313°
2026-05-04 02:39 34.09507 -119.74233 23210 ft 440 kts 313°
2026-05-04 02:40 34.11920 -119.76512 23570 ft 441 kts 313°
2026-05-04 02:40 34.14339 -119.78803 23889 ft 443 kts 313°
2026-05-04 02:40 34.16768 -119.81108 24206 ft 445 kts 312°
2026-05-04 02:40 34.19209 -119.83424 24542 ft 446 kts 312°
2026-05-04 02:41 34.21654 -119.85744 24886 ft 448 kts 312°
2026-05-04 02:41 34.24110 -119.88077 25218 ft 450 kts 312°
2026-05-04 02:41 34.26578 -119.90421 25558 ft 452 kts 312°
2026-05-04 02:41 34.29050 -119.92769 25892 ft 453 kts 312°
2026-05-04 02:42 34.31533 -119.95131 26235 ft 455 kts 312°
2026-05-04 02:42 34.34024 -119.97500 26554 ft 457 kts 312°
2026-05-04 02:42 34.36524 -119.99882 26896 ft 458 kts 312°
2026-05-04 02:42 34.39032 -120.02272 27222 ft 460 kts 312°
2026-05-04 02:43 34.41549 -120.04673 27547 ft 461 kts 312°
2026-05-04 02:43 34.44079 -120.07088 27860 ft 463 kts 312°
2026-05-04 02:43 34.46612 -120.09509 28162 ft 465 kts 312°
2026-05-04 02:43 34.49154 -120.11940 28468 ft 466 kts 312°
2026-05-04 02:44 34.51668 -120.14344 28757 ft 468 kts 312°
2026-05-04 02:44 34.54226 -120.16791 29117 ft 468 kts 312°
2026-05-04 02:44 34.56774 -120.19227 29574 ft 465 kts 312°
2026-05-04 02:44 34.59309 -120.21654 30061 ft 461 kts 311°
2026-05-04 02:45 34.61820 -120.24060 30450 ft 458 kts 311°
2026-05-04 02:45 34.64315 -120.26458 30737 ft 458 kts 311°
2026-05-04 02:45 34.66814 -120.28863 31037 ft 457 kts 310°
2026-05-04 02:45 34.69302 -120.31260 31408 ft 455 kts 310°
2026-05-04 02:46 34.71779 -120.33643 31761 ft 453 kts 309°
2026-05-04 02:46 34.74241 -120.36013 32025 ft 452 kts 309°
2026-05-04 02:46 34.76704 -120.38393 32277 ft 452 kts 309°
2026-05-04 02:46 34.79163 -120.40768 32581 ft 451 kts 309°
2026-05-04 02:47 34.81615 -120.43137 32874 ft 449 kts 308°
2026-05-04 02:47 34.84061 -120.45502 33132 ft 449 kts 308°
2026-05-04 02:47 34.86507 -120.47869 33314 ft 450 kts 308°
2026-05-04 02:47 34.88953 -120.50239 33576 ft 448 kts 308°
2026-05-04 02:48 34.91386 -120.52598 33839 ft 447 kts 308°
2026-05-04 02:48 34.93819 -120.54958 34056 ft 447 kts 308°
2026-05-04 02:48 34.96255 -120.57324 34206 ft 448 kts 308°
2026-05-04 02:48 34.98691 -120.59694 34327 ft 449 kts 308°
2026-05-04 02:49 35.01136 -120.62074 34441 ft 450 kts 308°
2026-05-04 02:49 35.03584 -120.64456 34580 ft 451 kts 308°
2026-05-04 02:49 35.06039 -120.66848 34711 ft 452 kts 309°
2026-05-04 02:49 35.08498 -120.69244 34838 ft 452 kts 309°
2026-05-04 02:50 35.10960 -120.71644 34972 ft 453 kts 309°
2026-05-04 02:50 35.13420 -120.74044 35105 ft 453 kts 309°
2026-05-04 02:50 35.15883 -120.76450 35238 ft 454 kts 309°
2026-05-04 02:50 35.17916 -120.78437 35378 ft 454 kts 309°
2026-05-04 02:51 35.20381 -120.80848 35518 ft 454 kts 310°
2026-05-04 02:51 35.22848 -120.83261 35641 ft 454 kts 310°
2026-05-04 02:51 35.25317 -120.85677 35802 ft 454 kts 310°
2026-05-04 02:51 35.27779 -120.88089 35952 ft 454 kts 310°
2026-05-04 02:52 35.30243 -120.90507 36088 ft 454 kts 310°
2026-05-04 02:52 35.32706 -120.92926 36197 ft 454 kts 310°
2026-05-04 02:52 35.35169 -120.95349 36321 ft 454 kts 310°
2026-05-04 02:52 35.37626 -120.97765 36446 ft 454 kts 310°
2026-05-04 02:53 35.40056 -121.00158 36562 ft 454 kts 310°
2026-05-04 02:53 35.42517 -121.02583 36683 ft 453 kts 310°
2026-05-04 02:53 35.44970 -121.05003 36793 ft 453 kts 310°
2026-05-04 02:53 35.47384 -121.07471 36886 ft 448 kts 306°
2026-05-04 02:54 35.51580 -121.12969 37085 ft 439 kts 301°
2026-05-04 02:54 35.55553 -121.18641 37272 ft 437 kts 300°
2026-05-04 02:55 35.58820 -121.23380 37416 ft 437 kts 300°
2026-05-04 02:55 35.60782 -121.26229 37510 ft 437 kts 300°
2026-05-04 02:56 35.65384 -121.32897 37683 ft 438 kts 301°
2026-05-04 02:56 35.68664 -121.37645 37794 ft 438 kts 301°
2026-05-04 02:57 35.72612 -121.43364 37928 ft 439 kts 301°
2026-05-04 02:57 35.77201 -121.50024 38052 ft 439 kts 301°
2026-05-04 02:58 35.80511 -121.54838 38144 ft 440 kts 301°
2026-05-04 02:58 35.84465 -121.60597 38235 ft 440 kts 301°
2026-05-04 02:59 35.88418 -121.66364 38323 ft 441 kts 301°
2026-05-04 02:59 35.92377 -121.72149 38409 ft 442 kts 301°
2026-05-04 03:00 35.96312 -121.77912 38453 ft 443 kts 301°
2026-05-04 03:00 36.00782 -121.83304 38469 ft 460 kts 314°
2026-05-04 03:00 36.03506 -121.85474 38481 ft 471 kts 321°
2026-05-04 03:01 36.06391 -121.87414 38503 ft 474 kts 323°
2026-05-04 03:01 36.12293 -121.91103 38576 ft 476 kts 324°
2026-05-04 03:02 36.18231 -121.94745 38643 ft 477 kts 324°
2026-05-04 03:02 36.24168 -121.98430 38684 ft 478 kts 324°
2026-05-04 03:03 36.30106 -122.02153 38710 ft 479 kts 324°
2026-05-04 03:03 36.36057 -122.05900 38713 ft 481 kts 325°
2026-05-04 03:04 36.42036 -122.09670 38699 ft 483 kts 325°
2026-05-04 03:04 36.48040 -122.13459 38679 ft 485 kts 326°
2026-05-04 03:05 36.54070 -122.17270 38687 ft 487 kts 326°
2026-05-04 03:05 36.60077 -122.21072 38740 ft 488 kts 326°
2026-05-04 03:06 36.66137 -122.24916 38760 ft 489 kts 326°
2026-05-04 03:06 36.72211 -122.28776 38785 ft 490 kts 327°
2026-05-04 03:07 36.78287 -122.32645 38833 ft 491 kts 327°
2026-05-04 03:07 36.84380 -122.36530 38854 ft 492 kts 327°
2026-05-04 03:08 36.90479 -122.40426 38879 ft 493 kts 327°
2026-05-04 03:08 36.96582 -122.44332 38928 ft 493 kts 328°
2026-05-04 03:09 37.02687 -122.48245 38982 ft 493 kts 328°
2026-05-04 03:09 37.08791 -122.52167 39026 ft 493 kts 328°
2026-05-04 03:10 37.14890 -122.56092 39072 ft 493 kts 328°
2026-05-04 03:10 37.20986 -122.60024 39155 ft 492 kts 328°
2026-05-04 03:10 37.24014 -122.61976 39368 ft 486 kts 328°
2026-05-04 03:11 37.27006 -122.63906 39593 ft 481 kts 328°
2026-05-04 03:11 37.29981 -122.65775 39810 ft 477 kts 332°
2026-05-04 03:11 37.33021 -122.67400 39966 ft 473 kts 333°
2026-05-04 03:12 37.39124 -122.70501 39983 ft 473 kts 334°
2026-05-04 03:12 37.45244 -122.73545 39983 ft 472 kts 335°
2026-05-04 03:13 37.51359 -122.76591 39865 ft 475 kts 335°
2026-05-04 03:13 37.54448 -122.78138 39647 ft 481 kts 335°
2026-05-04 03:13 37.57570 -122.79704 39324 ft 482 kts 335°
2026-05-04 03:13 37.60689 -122.81270 39081 ft 485 kts 335°
2026-05-04 03:14 37.63792 -122.82829 39021 ft 487 kts 335°
2026-05-04 03:14 37.70100 -122.86001 39012 ft 489 kts 335°
2026-05-04 03:15 37.76427 -122.89188 39013 ft 490 kts 335°
2026-05-04 03:15 37.82763 -122.92387 39014 ft 491 kts 336°
2026-05-04 03:16 37.89124 -122.95605 39014 ft 493 kts 336°
2026-05-04 03:16 37.95499 -122.98836 39015 ft 494 kts 336°
2026-05-04 03:17 38.01890 -123.02082 39009 ft 496 kts 336°
2026-05-04 03:17 38.08297 -123.05341 39008 ft 497 kts 336°
2026-05-04 03:18 38.14726 -123.08618 39002 ft 498 kts 336°
2026-05-04 03:18 38.21159 -123.11942 38996 ft 499 kts 334°
2026-05-04 03:19 38.27200 -123.16249 38995 ft 498 kts 327°
2026-05-04 03:19 38.33098 -123.20911 38995 ft 499 kts 326°
2026-05-04 03:20 38.38974 -123.25642 38993 ft 500 kts 326°
2026-05-04 03:20 38.44869 -123.30386 38992 ft 501 kts 327°
2026-05-04 03:21 38.50783 -123.35125 38993 ft 502 kts 327°
2026-05-04 03:21 38.56689 -123.39871 38998 ft 502 kts 327°
2026-05-04 03:22 38.62601 -123.44640 38997 ft 502 kts 327°
2026-05-04 03:22 38.67490 -123.48589 38994 ft 500 kts 327°
2026-05-04 03:23 38.70884 -123.51331 38999 ft 500 kts 327°
2026-05-04 03:23 38.76769 -123.56095 39001 ft 501 kts 327°
2026-05-04 03:24 38.82670 -123.60880 39003 ft 502 kts 327°
2026-05-04 03:24 38.88569 -123.65674 39003 ft 502 kts 327°
2026-05-04 03:25 38.94430 -123.70452 39006 ft 503 kts 327°
2026-05-04 03:25 38.99710 -123.76286 39010 ft 502 kts 310°
2026-05-04 03:26 39.03439 -123.83853 39010 ft 502 kts 297°
2026-05-04 03:26 39.06536 -123.91903 39013 ft 502 kts 295°
2026-05-04 03:27 39.09537 -124.00017 39013 ft 503 kts 295°
2026-05-04 03:27 39.12562 -124.08141 39013 ft 503 kts 296°
2026-05-04 03:28 39.15608 -124.16260 39017 ft 503 kts 296°
2026-05-04 03:28 39.18656 -124.24381 39014 ft 504 kts 296°
2026-05-04 03:29 39.21702 -124.32518 39015 ft 504 kts 296°
2026-05-04 03:29 39.24745 -124.40675 39010 ft 505 kts 296°
2026-05-04 03:30 39.27783 -124.48842 39010 ft 505 kts 296°
2026-05-04 03:30 39.30822 -124.57031 39010 ft 506 kts 296°
2026-05-04 03:31 39.33860 -124.65243 39010 ft 507 kts 296°
2026-05-04 03:31 39.36893 -124.73464 39010 ft 507 kts 296°
2026-05-04 03:32 39.39927 -124.81710 39009 ft 508 kts 296°
2026-05-04 03:32 39.42957 -124.89971 39007 ft 509 kts 296°
2026-05-04 03:33 39.45986 -124.98248 39001 ft 509 kts 296°
2026-05-04 03:33 39.49014 -125.06546 39009 ft 510 kts 296°
2026-05-04 03:34 39.52017 -125.14802 39012 ft 510 kts 296°
2026-05-04 03:34 39.55037 -125.23128 39000 ft 511 kts 295°
2026-05-04 03:35 39.58051 -125.31458 39005 ft 511 kts 295°
2026-05-04 03:35 39.61062 -125.39805 39001 ft 511 kts 295°
2026-05-04 03:36 39.64064 -125.48152 39006 ft 511 kts 295°
2026-05-04 03:36 39.67064 -125.56517 39005 ft 511 kts 295°
2026-05-04 03:37 39.70057 -125.64886 39003 ft 511 kts 295°
2026-05-04 03:37 39.73047 -125.73269 39001 ft 511 kts 295°
2026-05-04 03:38 39.76025 -125.81646 39000 ft 511 kts 295°
2026-05-04 03:38 39.79000 -125.90036 39003 ft 511 kts 295°
2026-05-04 03:39 39.81969 -125.98436 39000 ft 511 kts 295°
2026-05-04 03:39 39.84931 -126.06838 39000 ft 511 kts 295°
2026-05-04 03:40 39.87887 -126.15247 39002 ft 511 kts 295°
2026-05-04 03:40 39.90836 -126.23664 39002 ft 510 kts 296°
2026-05-04 03:41 39.93775 -126.32075 39000 ft 510 kts 296°
2026-05-04 03:41 39.96709 -126.40496 38999 ft 510 kts 296°
2026-05-04 03:42 39.99614 -126.48859 38999 ft 510 kts 296°
2026-05-04 03:42 40.02408 -126.57362 38998 ft 510 kts 293°
2026-05-04 03:43 40.04969 -126.66003 38993 ft 510 kts 292°
2026-05-04 03:43 40.07524 -126.74650 38995 ft 510 kts 293°
2026-05-04 03:44 40.10109 -126.83274 38993 ft 510 kts 293°
2026-05-04 03:44 40.12707 -126.91894 38991 ft 510 kts 294°
2026-05-04 03:45 40.15303 -127.00523 38990 ft 510 kts 294°
2026-05-04 03:45 40.17478 -127.07752 38989 ft 510 kts 294°
2026-05-04 03:46 40.20059 -127.16391 38990 ft 510 kts 294°
2026-05-04 03:46 40.22633 -127.25035 38990 ft 510 kts 294°
2026-05-04 03:47 40.25201 -127.33681 38985 ft 510 kts 294°
2026-05-04 03:47 40.27764 -127.42337 38990 ft 510 kts 294°
2026-05-04 03:48 40.30323 -127.51004 38987 ft 510 kts 294°
2026-05-04 03:48 40.32876 -127.59683 38988 ft 510 kts 294°
2026-05-04 03:49 40.35422 -127.68365 38990 ft 511 kts 294°
2026-05-04 03:49 40.37964 -127.77066 38991 ft 511 kts 294°
2026-05-04 03:50 40.40502 -127.85780 38985 ft 511 kts 294°
2026-05-04 03:50 40.43035 -127.94504 38990 ft 512 kts 294°
2026-05-04 03:51 40.45560 -128.03233 38986 ft 512 kts 294°
2026-05-04 03:51 40.48081 -128.11975 38989 ft 512 kts 294°
2026-05-04 03:52 40.50581 -128.20671 38994 ft 512 kts 294°
2026-05-04 03:52 40.53089 -128.29428 38991 ft 512 kts 293°
2026-05-04 03:53 40.55595 -128.38207 38988 ft 513 kts 293°
2026-05-04 03:53 40.58091 -128.46983 38988 ft 513 kts 293°
2026-05-04 03:54 40.60583 -128.55772 38998 ft 513 kts 293°
2026-05-04 03:54 40.63070 -128.64572 38987 ft 513 kts 293°
2026-05-04 03:55 40.65549 -128.73378 39000 ft 513 kts 293°
2026-05-04 03:55 40.68022 -128.82191 38996 ft 513 kts 293°
2026-05-04 03:56 40.70488 -128.91007 38992 ft 513 kts 293°
2026-05-04 03:56 40.72948 -128.99837 38993 ft 513 kts 293°
2026-05-04 03:57 40.75401 -129.08671 38994 ft 513 kts 293°
2026-05-04 03:57 40.77846 -129.17507 38997 ft 513 kts 293°
2026-05-04 03:58 40.81501 -129.30771 38998 ft 513 kts 293°
2026-05-04 03:58 40.83929 -129.39621 38999 ft 513 kts 293°
2026-05-04 03:59 40.86350 -129.48480 39000 ft 513 kts 293°
2026-05-04 03:59 40.88746 -129.57274 39000 ft 513 kts 293°
2026-05-04 04:00 40.91156 -129.66154 39008 ft 513 kts 294°
2026-05-04 04:00 40.93559 -129.75037 39005 ft 513 kts 294°
2026-05-04 04:01 40.95958 -129.83937 39008 ft 514 kts 294°
2026-05-04 04:01 40.98351 -129.92848 39011 ft 514 kts 294°
2026-05-04 04:02 41.00737 -130.01766 39012 ft 514 kts 294°
2026-05-04 04:02 41.03120 -130.10704 39015 ft 515 kts 294°
2026-05-04 04:03 41.05495 -130.19649 39018 ft 515 kts 294°
2026-05-04 04:03 41.07867 -130.28609 39016 ft 515 kts 294°
2026-05-04 04:04 41.10233 -130.37583 39021 ft 516 kts 294°
2026-05-04 04:04 41.12595 -130.46570 39024 ft 516 kts 294°
2026-05-04 04:05 41.14953 -130.55575 39028 ft 517 kts 294°
2026-05-04 04:05 41.17304 -130.64590 39028 ft 517 kts 294°
2026-05-04 04:06 41.19672 -130.73597 39027 ft 516 kts 296°
2026-05-04 04:06 41.22582 -130.82253 39038 ft 513 kts 300°
2026-05-04 04:07 41.25626 -130.90819 39038 ft 512 kts 300°
2026-05-04 04:07 41.28683 -130.99364 39050 ft 512 kts 300°
2026-05-04 04:08 41.31733 -131.07942 39035 ft 513 kts 300°
2026-05-04 04:08 41.34750 -131.16474 39044 ft 513 kts 301°
2026-05-04 04:09 41.37776 -131.25068 39049 ft 513 kts 301°
2026-05-04 04:09 41.40795 -131.33669 39055 ft 513 kts 301°
2026-05-04 04:10 41.43811 -131.42284 39055 ft 513 kts 301°
2026-05-04 04:10 41.46817 -131.50897 39057 ft 512 kts 301°
2026-05-04 04:11 41.49782 -131.59431 39060 ft 504 kts 301°
2026-05-04 04:11 41.52719 -131.67898 39059 ft 502 kts 301°
2026-05-04 04:12 41.55649 -131.76364 39061 ft 502 kts 301°
2026-05-04 04:12 41.58576 -131.84843 39062 ft 503 kts 301°
2026-05-04 04:13 41.61488 -131.93321 39067 ft 500 kts 301°
2026-05-04 04:13 41.64380 -132.01761 39070 ft 499 kts 301°
2026-05-04 04:14 41.67262 -132.10195 39075 ft 498 kts 302°
2026-05-04 04:14 41.70132 -132.18618 39072 ft 497 kts 302°
2026-05-04 04:15 41.72991 -132.27036 39073 ft 496 kts 302°
2026-05-04 04:15 41.75836 -132.35440 39077 ft 495 kts 302°
2026-05-04 04:16 41.78652 -132.43780 39080 ft 494 kts 302°
2026-05-04 04:16 41.81473 -132.52165 39079 ft 493 kts 302°
2026-05-04 04:17 41.84286 -132.60548 39081 ft 493 kts 302°
2026-05-04 04:17 41.87089 -132.68927 39095 ft 492 kts 302°
2026-05-04 04:18 41.89878 -132.77292 39085 ft 491 kts 302°
2026-05-04 04:18 41.92656 -132.85646 39093 ft 490 kts 302°
2026-05-04 04:19 41.95425 -132.94001 39092 ft 489 kts 302°
2026-05-04 04:19 41.98182 -133.02343 39097 ft 488 kts 302°
2026-05-04 04:20 42.00927 -133.10676 39098 ft 487 kts 302°
2026-05-04 04:20 42.03660 -133.18999 39099 ft 486 kts 302°
2026-05-04 04:21 42.06383 -133.27316 39097 ft 485 kts 302°
2026-05-04 04:21 42.09097 -133.35628 39102 ft 484 kts 302°
2026-05-04 04:22 42.11800 -133.43932 39110 ft 484 kts 302°
2026-05-04 04:22 42.14494 -133.52235 39109 ft 483 kts 302°
2026-05-04 04:23 42.17180 -133.60539 39111 ft 483 kts 302°
2026-05-04 04:23 42.19858 -133.68841 39115 ft 482 kts 301°
2026-05-04 04:24 42.22523 -133.77134 39116 ft 482 kts 301°
2026-05-04 04:24 42.25181 -133.85428 39120 ft 481 kts 301°
2026-05-04 04:25 42.27827 -133.93714 39121 ft 480 kts 301°
2026-05-04 04:25 42.30463 -134.01992 39123 ft 479 kts 301°
2026-05-04 04:26 42.33089 -134.10264 39129 ft 479 kts 301°
2026-05-04 04:26 42.35705 -134.18529 39127 ft 478 kts 301°
2026-05-04 04:27 42.38314 -134.26797 39131 ft 477 kts 301°
2026-05-04 04:27 42.40912 -134.35056 39135 ft 477 kts 301°
2026-05-04 04:28 42.43484 -134.43255 39134 ft 476 kts 300°
2026-05-04 04:28 42.46064 -134.51510 39134 ft 476 kts 300°
2026-05-04 04:29 42.48634 -134.59758 39139 ft 475 kts 300°
2026-05-04 04:29 42.51195 -134.68000 39142 ft 475 kts 300°
2026-05-04 04:30 42.53750 -134.76251 39146 ft 474 kts 300°
2026-05-04 04:30 42.56298 -134.84504 39155 ft 474 kts 300°
2026-05-04 04:31 42.58836 -134.92752 39151 ft 474 kts 300°
2026-05-04 04:31 42.61371 -135.01014 39149 ft 474 kts 299°
2026-05-04 04:32 42.63897 -135.09274 39158 ft 474 kts 299°
2026-05-04 04:32 42.66419 -135.17547 39148 ft 473 kts 299°
2026-05-04 04:33 42.68523 -135.24470 39154 ft 473 kts 299°
2026-05-04 04:33 42.71014 -135.32689 39160 ft 473 kts 299°
2026-05-04 04:34 42.73517 -135.40971 39162 ft 473 kts 298°
2026-05-04 04:34 42.76013 -135.49262 39165 ft 473 kts 298°
2026-05-04 04:35 42.78502 -135.57552 39166 ft 473 kts 298°
2026-05-04 04:35 42.80986 -135.65854 39172 ft 473 kts 298°
2026-05-04 04:36 42.83463 -135.74158 39172 ft 473 kts 298°
2026-05-04 04:36 42.85933 -135.82467 39171 ft 473 kts 298°
2026-05-04 04:37 42.90852 -135.99094 39187 ft 473 kts 297°
2026-05-04 04:38 42.93301 -136.07411 39183 ft 472 kts 297°
2026-05-04 04:38 42.95727 -136.15680 39185 ft 472 kts 297°
2026-05-04 04:39 42.98160 -136.23998 39186 ft 472 kts 297°
2026-05-04 04:39 43.00590 -136.32333 39188 ft 472 kts 297°
2026-05-04 04:40 43.03011 -136.40660 39188 ft 472 kts 297°
2026-05-04 04:40 43.05425 -136.48997 39186 ft 471 kts 297°
2026-05-04 04:41 43.07832 -136.57333 39192 ft 471 kts 297°
2026-05-04 04:41 43.10231 -136.65674 39192 ft 471 kts 297°
2026-05-04 04:42 43.12640 -136.74045 39200 ft 474 kts 295°
2026-05-04 04:42 43.15048 -136.82475 39186 ft 477 kts 295°
2026-05-04 04:43 43.17462 -136.90957 39199 ft 479 kts 294°
2026-05-04 04:43 43.19884 -136.99493 39201 ft 482 kts 294°
2026-05-04 04:44 43.22312 -137.08074 39200 ft 484 kts 294°
2026-05-04 04:44 43.24747 -137.16709 39201 ft 486 kts 294°
2026-05-04 04:45 43.27180 -137.25371 39202 ft 487 kts 294°
2026-05-04 04:47 43.35650 -137.55758 39208 ft 487 kts 293°
2026-05-04 04:47 43.38057 -137.64459 39209 ft 487 kts 293°
2026-05-04 04:48 43.40457 -137.73167 39210 ft 487 kts 292°
2026-05-04 04:49 43.46427 -137.94965 39214 ft 487 kts 292°
2026-05-04 04:49 43.48800 -138.03683 39217 ft 486 kts 292°
2026-05-04 04:50 43.51151 -138.12351 39214 ft 486 kts 292°
2026-05-04 04:50 43.53511 -138.21083 39220 ft 486 kts 292°
2026-05-04 04:51 43.55862 -138.29816 39216 ft 486 kts 291°
2026-05-04 04:51 43.58204 -138.38544 39219 ft 485 kts 291°
2026-05-04 04:52 43.60536 -138.47269 39220 ft 485 kts 291°
2026-05-04 04:52 43.62862 -138.56001 39222 ft 484 kts 291°
2026-05-04 04:53 43.65178 -138.64728 39224 ft 484 kts 291°
2026-05-04 04:53 43.67488 -138.73463 39222 ft 484 kts 291°
2026-05-04 04:54 43.69789 -138.82198 39226 ft 484 kts 290°
2026-05-04 04:54 43.72082 -138.90936 39223 ft 483 kts 290°
2026-05-04 04:55 43.74370 -138.99679 39226 ft 483 kts 290°
2026-05-04 04:55 43.76650 -139.08425 39229 ft 483 kts 290°
2026-05-04 04:56 43.78922 -139.17179 39232 ft 483 kts 290°
2026-05-04 04:56 43.81187 -139.25939 39232 ft 483 kts 289°
2026-05-04 04:57 43.83446 -139.34705 39235 ft 483 kts 289°
2026-05-04 04:57 43.85684 -139.43421 39234 ft 483 kts 289°
2026-05-04 04:58 43.87927 -139.52189 39237 ft 483 kts 289°
2026-05-04 04:58 43.90164 -139.60969 39237 ft 483 kts 289°
2026-05-04 04:59 43.92396 -139.69757 39239 ft 483 kts 289°
2026-05-04 04:59 43.94618 -139.78542 39238 ft 483 kts 288°
2026-05-04 05:00 43.96834 -139.87334 39238 ft 482 kts 288°
2026-05-04 05:01 44.00270 -140.00461 39237 ft 483 kts 294°
2026-05-04 05:01 44.03186 -140.08880 39237 ft 484 kts 295°
2026-05-04 05:02 44.06201 -140.17250 39239 ft 485 kts 295°
2026-05-04 05:02 44.09231 -140.25639 39238 ft 486 kts 295°
2026-05-04 05:03 44.12249 -140.34052 39238 ft 486 kts 295°
2026-05-04 05:04 44.18267 -140.50951 39230 ft 488 kts 295°
2026-05-04 05:04 44.21274 -140.59438 39244 ft 489 kts 294°
2026-05-04 05:06 44.33273 -140.93560 39237 ft 492 kts 294°
2026-05-04 05:07 44.36271 -141.02153 39234 ft 492 kts 293°
2026-05-04 05:07 44.39267 -141.10766 39236 ft 493 kts 293°
2026-05-04 05:09 44.52704 -141.49743 39228 ft 495 kts 292°
2026-05-04 05:10 44.55678 -141.58449 39231 ft 495 kts 292°
2026-05-04 05:10 44.58644 -141.67157 39221 ft 495 kts 291°
2026-05-04 05:11 44.61605 -141.75879 39225 ft 495 kts 291°
2026-05-04 05:11 44.64563 -141.84622 39229 ft 496 kts 291°
2026-05-04 05:12 44.67497 -141.93322 39221 ft 496 kts 291°
2026-05-04 05:12 44.70445 -142.02090 39224 ft 496 kts 291°
2026-05-04 05:13 44.73384 -142.10861 39221 ft 496 kts 290°
2026-05-04 05:13 44.76323 -142.19663 39220 ft 497 kts 290°
2026-05-04 05:14 44.79255 -142.28474 39220 ft 497 kts 290°
2026-05-04 05:14 44.82185 -142.37307 39220 ft 498 kts 290°
2026-05-04 05:15 44.85108 -142.46146 39215 ft 498 kts 289°
2026-05-04 05:15 44.88030 -142.55015 39211 ft 499 kts 289°
2026-05-04 05:16 44.90947 -142.63898 39215 ft 499 kts 289°
2026-05-04 05:16 44.93860 -142.72797 39210 ft 500 kts 289°
2026-05-04 05:17 44.96770 -142.81718 39193 ft 500 kts 289°
2026-05-04 05:17 44.99675 -142.90656 39204 ft 501 kts 288°
2026-05-04 05:18 45.02576 -142.99611 39201 ft 501 kts 288°
2026-05-04 05:18 45.05474 -143.08586 39198 ft 502 kts 288°
2026-05-04 05:19 45.08366 -143.17573 39199 ft 502 kts 288°
2026-05-04 05:19 45.11252 -143.26576 39199 ft 503 kts 288°
2026-05-04 05:20 45.14135 -143.35598 39188 ft 503 kts 288°
2026-05-04 05:20 45.17011 -143.44629 39188 ft 503 kts 287°
2026-05-04 05:21 45.19862 -143.53613 39185 ft 503 kts 287°
2026-05-04 05:21 45.22261 -143.61198 39181 ft 503 kts 287°
2026-05-04 05:22 45.25121 -143.70268 39178 ft 503 kts 287°
2026-05-04 05:22 45.27973 -143.79345 39178 ft 504 kts 287°
2026-05-04 05:23 45.30817 -143.88432 39173 ft 504 kts 286°
2026-05-04 05:23 45.33657 -143.97535 39168 ft 504 kts 286°
2026-05-04 05:24 45.36486 -144.06636 39164 ft 503 kts 286°
2026-05-04 05:24 45.39290 -144.15689 39162 ft 503 kts 285°
2026-05-04 05:25 45.42124 -144.24873 39158 ft 503 kts 285°
2026-05-04 05:25 45.44914 -144.33942 39157 ft 503 kts 285°
2026-05-04 05:26 45.47716 -144.43087 39148 ft 503 kts 285°
2026-05-04 05:26 45.50510 -144.52235 39145 ft 503 kts 285°
2026-05-04 05:28 45.61614 -144.88930 39129 ft 503 kts 284°
2026-05-04 05:29 45.64368 -144.98117 39120 ft 503 kts 284°
2026-05-04 05:29 45.67117 -145.07318 39116 ft 503 kts 284°
2026-05-04 05:31 45.78026 -145.44170 39094 ft 502 kts 283°
2026-05-04 05:32 45.80730 -145.53393 39087 ft 502 kts 283°
2026-05-04 05:33 45.84778 -145.67258 39077 ft 502 kts 283°
2026-05-04 05:33 45.87463 -145.76501 39071 ft 502 kts 283°
2026-05-04 05:34 45.90142 -145.85755 39072 ft 502 kts 282°
2026-05-04 05:34 45.92797 -145.94963 39053 ft 502 kts 282°
2026-05-04 05:35 45.95465 -146.04246 39056 ft 503 kts 282°
2026-05-04 05:35 45.98123 -146.13535 39050 ft 503 kts 282°
2026-05-04 05:36 46.00775 -146.22836 39044 ft 503 kts 282°
2026-05-04 05:36 46.03422 -146.32154 39039 ft 503 kts 282°
2026-05-04 05:37 46.06062 -146.41481 39034 ft 503 kts 282°
2026-05-04 05:37 46.08694 -146.50822 39029 ft 503 kts 282°
2026-05-04 05:38 46.12629 -146.64852 39005 ft 504 kts 282°
2026-05-04 05:38 46.15246 -146.74223 39013 ft 504 kts 281°
2026-05-04 05:39 46.19159 -146.88304 39007 ft 504 kts 281°
2026-05-04 05:40 46.23055 -147.02410 38991 ft 504 kts 281°
2026-05-04 05:40 46.25644 -147.11832 38983 ft 504 kts 281°
2026-05-04 05:41 46.28227 -147.21265 38976 ft 505 kts 281°
2026-05-04 05:41 46.30801 -147.30706 38971 ft 505 kts 281°
2026-05-04 05:42 46.33371 -147.40170 38966 ft 506 kts 281°
2026-05-04 05:42 46.35937 -147.49656 38954 ft 506 kts 281°
2026-05-04 05:43 46.38496 -147.59154 38952 ft 507 kts 281°
2026-05-04 05:45 46.48690 -147.97373 38908 ft 511 kts 281°
2026-05-04 05:47 46.58837 -148.36040 38881 ft 513 kts 281°
2026-05-04 05:47 46.61357 -148.45742 38875 ft 513 kts 281°
2026-05-04 05:48 46.63871 -148.55461 38864 ft 513 kts 281°
2026-05-04 05:48 46.66374 -148.65180 38854 ft 513 kts 281°
2026-05-04 05:49 46.68869 -148.74908 38840 ft 513 kts 281°
2026-05-04 05:49 46.71354 -148.84639 38843 ft 512 kts 281°
2026-05-04 05:51 46.81188 -149.23567 38804 ft 512 kts 281°
2026-05-04 05:52 46.83629 -149.33334 38790 ft 512 kts 281°
2026-05-04 05:52 46.86060 -149.43105 38778 ft 512 kts 282°
2026-05-04 05:54 46.95691 -149.82226 38732 ft 511 kts 282°
2026-05-04 05:55 46.98076 -149.92018 38720 ft 511 kts 282°
2026-05-04 05:55 47.00711 -150.01714 38716 ft 518 kts 290°
2026-05-04 05:56 47.04003 -150.11123 38696 ft 519 kts 291°
2026-05-04 05:56 47.07397 -150.20484 38686 ft 520 kts 291°
2026-05-04 05:57 47.10770 -150.29789 38675 ft 520 kts 291°
2026-05-04 05:57 47.14169 -150.39236 38660 ft 520 kts 291°
2026-05-04 05:58 47.17531 -150.48638 38651 ft 520 kts 291°
2026-05-04 05:58 47.20858 -150.57981 38640 ft 519 kts 291°
2026-05-04 05:59 47.24200 -150.67399 38628 ft 519 kts 292°
2026-05-04 05:59 47.27532 -150.76821 38611 ft 519 kts 292°
2026-05-04 06:00 47.30855 -150.86254 38601 ft 519 kts 292°
2026-05-04 06:00 47.34169 -150.95693 38587 ft 519 kts 292°
2026-05-04 06:01 47.37477 -151.05149 38575 ft 519 kts 292°
2026-05-04 06:03 47.50633 -151.43093 38530 ft 519 kts 292°